APRIZESAT 2

Satellite information

Favourite Embed

Satellite Type and Status

PAYLOADIN ORBIT

Key statistics

Satellite APRIZESAT 2 at a glance.

Uptime

7618

Days in orbit

Revolutions

≈ 14.4

Per day

Orbit

SSO

Sun Synchronous Orbit

Inclination

98.1

Latest

Satellite identification and parameters

Extended collection of information and parameters for APRIZESAT 2.

Object identification

Identified? True

Debris? False

Object name: APRIZESAT 2

International designator: 2004-025A

Object number (NORAD): 28366

Object ID (CCSDS): 28366

Country: UNITED STATES OF AMERICA (US)

Current information (Y/N): Y

RCS size: SMALL

Orbital parameters

Period: 100.154 minutes

Inclination: 98.0772 deg

SMA: 7143.968 km

Apoapsis: 842.058 km

Periapsis: 689.607 km

RAAN: 312.6459 deg

Eccentricy: 0.0106699

Argument of periapsis: 34.3057 deg

Mean anomaly: 326.4962 deg

Mean motion: 14.37783642 rev/day

Mean motion (dot): 0.00000256 rev/day2

B* drag term: 0.000092748 1/REarth

Two-line elements (TLE)

Creation date: May 8, 2025, 3:01 a.m.

Reference frame: TEME

Reference center: EARTH

Epoch: May 7, 2025, 10:43 p.m. UTC

TLE line 0: 0 APRIZESAT 2

TLE line 1: 1 28366U 04025A 25127.94674012 .00000256 00000-0 92748-4 0 9993

TLE line 2: 2 28366 98.0772 312.6459 0106699 34.3057 326.4962 14.37783642 93406

Live tracking on map

Real-time ground track for satellite APRIZESAT 2.

In-orbit conjunctions

There are no conjunctions computed for APRIZESAT 2, at the moment. Check back to stay up to date, as we update our databases every day.

Go to all conjunctions

Associated space launch

AprizeSat, is a constellation of small Low-Earth-Orbit satellites (64 satellites planned) to achieve a global communication system of data transmission and fixed and mobile asset tracking and monitoring (GMPCS).

APRIZESAT 2 was lifted into orbit during the mission ‘Dnepr | Aprizesat-2’, on board a Dnepr space rocket.

The launch took place on June 29, 2004, 6:30 a.m. from 109/95.

For more information about the launch, click the button.

Launch to space Dnepr | Aprizesat-2
Dnepr | Aprizesat-2

Agency: N/A

Status: Launch Successful

Launch date: June 29, 2004, 6:30 a.m. UTC

Rocket: Dnepr

Launch pad: 109/95

Location: Baikonur Cosmodrome, Republic of Kazakhstan

...

Latest news about this satellite

There are no fresh news available about this satellite. Check back as we update our databases every day.


Newsletter sign-up

Weekly statistics, charts and insights to help you stay on top of the space industry.